Strona główna
METAR-TAF:

METAR-TAF

Lotnisko :

Hrabstwo Ocean, New Jersey, Stany Zjednoczone

Szerokość geograficzna: 39-55-39N, Długość geograficzna: 074-17-33W, wysokość: 25 m

Aktualna obserwacja pogody

Raport powstał 59 minut temu, godzina 14:56 UTC
Wiatr 9 kt od zachodnio-północny zachód w porywach dochodzący do 17 kt
Temperatura 8°C
Wilgotność 61%
Ciśnienie 1023 hPa
Widzialność: 16.1 km
bezchmurnie

METAR: KMJX 171456Z AUTO 30009G17KT 10SM CLR 08/01 A3021 RMK AO2 SLP237 T00780006 50013

czas: 10:55 (15:55 UTC)


TAF: brakujący

Obserwacja i prognoza pogody dla ponad 4000 lotnisk (raport METAR i TAF).

Dostępne stacje oznaczono żółtymi i czerwonymi punktami na mapie.

Najedź kursorem aby zobaczyć nazwę stacji.

Kliknij aby zobaczyć obserwacje i prognozy pogody.

Aby zmienić mapę: kliknij na zielony przycisk z czarnym krzyżykiem, aby powiększyć; na zielony przycisk z myślnikiem, aby pomniejszyć; na zielone strzałki, aby przejść do map sąsiednich.


METAR-TAF: